Location: Unspecified
(0.0000°N, 0.0000°E)
Time: 07:06:58
(UTC+00:00)

Courier 1B Rocket - Pass Details

Date: 21 November 2019
Orbit: 920 x 1202 km, 28.2° (Epoch: 09 July)

Event Time Altitude Azimuth Distance (km) Brightness Sun altitude
Rises 20:00:37 0° 317° (NW) 4,049 8.5 -31.4°
Reaches altitude 10° 20:03:47 10° 326° (NNW) 3,107 7.7 -32.1°
Enters shadow 20:06:31 21° 341° (NNW) 2,404 6.9 -32.8°
